Year,Month,Day,Hour,Minute,Value (Times are PST for temperature in C)
2023,04,17,00,00,4.20
2023,04,17,00,01,4.20
2023,04,17,00,02,4.20
2023,04,17,00,03,4.20
2023,04,17,00,04,4.20
2023,04,17,00,05,4.20
2023,04,17,00,06,4.20
2023,04,17,00,07,4.20
2023,04,17,00,08,4.20
2023,04,17,00,09,4.20
2023,04,17,00,10,4.10
2023,04,17,00,11,4.10
2023,04,17,00,12,4.10
2023,04,17,00,13,4.10
2023,04,17,00,14,4.10
2023,04,17,00,15,4.10
2023,04,17,00,16,4.00
2023,04,17,00,17,4.00
2023,04,17,00,18,4.00
2023,04,17,00,19,3.90
2023,04,17,00,20,3.90
2023,04,17,00,21,3.90
2023,04,17,00,22,3.80
2023,04,17,00,23,3.80
2023,04,17,00,24,3.80
2023,04,17,00,25,3.80
2023,04,17,00,26,3.80
2023,04,17,00,27,3.80
2023,04,17,00,28,3.70
2023,04,17,00,29,3.70
2023,04,17,00,30,3.70
2023,04,17,00,31,3.70
2023,04,17,00,32,3.70
2023,04,17,00,33,3.70
2023,04,17,00,34,3.70
2023,04,17,00,35,3.70
2023,04,17,00,36,3.70
2023,04,17,00,37,3.70
2023,04,17,00,38,3.70
2023,04,17,00,39,3.70
2023,04,17,00,40,3.70
2023,04,17,00,41,3.60
2023,04,17,00,42,3.60
2023,04,17,00,43,3.60
2023,04,17,00,44,3.60
2023,04,17,00,45,3.60
2023,04,17,00,46,3.50
2023,04,17,00,47,3.50
2023,04,17,00,48,3.50
2023,04,17,00,49,3.40
2023,04,17,00,50,3.40
2023,04,17,00,51,3.40
2023,04,17,00,52,3.40
2023,04,17,00,53,3.40
2023,04,17,00,54,3.30
2023,04,17,00,55,3.30
2023,04,17,00,56,3.30
2023,04,17,00,57,3.30
2023,04,17,00,58,3.30
2023,04,17,00,59,3.30
2023,04,17,01,00,3.20
2023,04,17,01,01,3.20
2023,04,17,01,02,3.20
2023,04,17,01,03,3.10
2023,04,17,01,04,3.10
2023,04,17,01,05,3.10
2023,04,17,01,06,3.00
2023,04,17,01,07,3.00
2023,04,17,01,08,2.90
2023,04,17,01,09,2.80
2023,04,17,01,10,2.80
2023,04,17,01,11,2.80
2023,04,17,01,12,2.70
2023,04,17,01,13,2.70
2023,04,17,01,14,2.60
2023,04,17,01,15,2.60
2023,04,17,01,16,2.60
2023,04,17,01,17,2.60
2023,04,17,01,18,2.50
2023,04,17,01,19,2.50
2023,04,17,01,20,2.50
2023,04,17,01,21,2.50
2023,04,17,01,22,2.40
2023,04,17,01,23,2.40
2023,04,17,01,24,2.40
2023,04,17,01,25,2.40
2023,04,17,01,26,2.40
2023,04,17,01,27,2.40
2023,04,17,01,28,2.40
2023,04,17,01,29,2.40
2023,04,17,01,30,2.40
2023,04,17,01,31,2.40
2023,04,17,01,32,2.30
2023,04,17,01,33,2.30
2023,04,17,01,34,2.30
2023,04,17,01,35,2.30
2023,04,17,01,36,2.30
2023,04,17,01,37,2.30
2023,04,17,01,38,2.30
2023,04,17,01,39,2.20
2023,04,17,01,40,2.20
2023,04,17,01,41,2.20
2023,04,17,01,42,2.20
2023,04,17,01,43,2.20
2023,04,17,01,44,2.10
2023,04,17,01,45,2.10
2023,04,17,01,46,2.10
2023,04,17,01,47,2.10
2023,04,17,01,48,2.10
2023,04,17,01,49,2.00
2023,04,17,01,50,2.00
2023,04,17,01,51,2.00
2023,04,17,01,52,2.00
2023,04,17,01,53,2.00
2023,04,17,01,54,1.90
2023,04,17,01,55,1.90
2023,04,17,01,56,1.90
2023,04,17,01,57,1.90
2023,04,17,01,58,1.90
2023,04,17,01,59,1.90
2023,04,17,02,00,1.80
2023,04,17,02,01,1.80
2023,04,17,02,02,1.80
2023,04,17,02,03,1.80
2023,04,17,02,04,1.80
2023,04,17,02,05,1.70
2023,04,17,02,06,1.70
2023,04,17,02,07,1.70
2023,04,17,02,08,1.60
2023,04,17,02,09,1.60
2023,04,17,02,10,1.60
2023,04,17,02,11,1.60
2023,04,17,02,12,1.60
2023,04,17,02,13,1.60
2023,04,17,02,14,1.60
2023,04,17,02,15,1.60
2023,04,17,02,16,1.60
2023,04,17,02,17,1.50
2023,04,17,02,18,1.50
2023,04,17,02,19,1.50
2023,04,17,02,20,1.50
2023,04,17,02,21,1.50
2023,04,17,02,22,1.50
2023,04,17,02,23,1.50
2023,04,17,02,24,1.50
2023,04,17,02,25,1.50
2023,04,17,02,26,1.50
2023,04,17,02,27,1.50
2023,04,17,02,28,1.50
2023,04,17,02,29,1.50
2023,04,17,02,30,1.50
2023,04,17,02,31,1.50
2023,04,17,02,32,1.50
2023,04,17,02,33,1.60
2023,04,17,02,34,1.60
2023,04,17,02,35,1.60
2023,04,17,02,36,1.60
2023,04,17,02,37,1.60
2023,04,17,02,38,1.60
2023,04,17,02,39,1.60
2023,04,17,02,40,1.60
2023,04,17,02,41,1.70
2023,04,17,02,42,1.70
2023,04,17,02,43,1.70
2023,04,17,02,44,1.70
2023,04,17,02,45,1.70
2023,04,17,02,46,1.60
2023,04,17,02,47,1.60
2023,04,17,02,48,1.60
2023,04,17,02,49,1.60
2023,04,17,02,50,1.60
2023,04,17,02,51,1.60
2023,04,17,02,52,1.60
2023,04,17,02,53,1.50
2023,04,17,02,54,1.50
2023,04,17,02,55,1.50
2023,04,17,02,56,1.50
2023,04,17,02,57,1.60
2023,04,17,02,58,1.50
2023,04,17,02,59,1.50
2023,04,17,03,00,1.50
2023,04,17,03,01,1.50
2023,04,17,03,02,1.50
2023,04,17,03,03,1.50
2023,04,17,03,04,1.50
2023,04,17,03,05,1.50
2023,04,17,03,06,1.50
2023,04,17,03,07,1.50
2023,04,17,03,08,1.50
2023,04,17,03,09,1.50
2023,04,17,03,10,1.40
2023,04,17,03,11,1.40
2023,04,17,03,12,1.40
2023,04,17,03,13,1.30
2023,04,17,03,14,1.30
2023,04,17,03,15,1.30
2023,04,17,03,16,1.30
2023,04,17,03,17,1.20
2023,04,17,03,18,1.20
2023,04,17,03,19,1.20
2023,04,17,03,20,1.10
2023,04,17,03,21,1.10
2023,04,17,03,22,1.10
2023,04,17,03,23,1.10
2023,04,17,03,24,1.00
2023,04,17,03,25,1.00
2023,04,17,03,26,1.00
2023,04,17,03,27,0.90
2023,04,17,03,28,0.90
2023,04,17,03,29,0.90
2023,04,17,03,30,0.90
2023,04,17,03,31,0.90
2023,04,17,03,32,0.90
2023,04,17,03,33,0.90
2023,04,17,03,34,0.80
2023,04,17,03,35,0.80
2023,04,17,03,36,0.80
2023,04,17,03,37,0.80
2023,04,17,03,38,0.80
2023,04,17,03,39,0.80
2023,04,17,03,40,0.80
2023,04,17,03,41,0.80
2023,04,17,03,42,0.80
2023,04,17,03,43,0.80
2023,04,17,03,44,0.80
2023,04,17,03,45,0.80
2023,04,17,03,46,0.80
2023,04,17,03,47,0.80
2023,04,17,03,48,0.80
2023,04,17,03,49,0.80
2023,04,17,03,50,0.80
2023,04,17,03,51,0.80
2023,04,17,03,52,0.80
2023,04,17,03,53,0.80
2023,04,17,03,54,0.80
2023,04,17,03,55,0.80
2023,04,17,03,56,0.80
2023,04,17,03,57,0.80
2023,04,17,03,58,0.80
2023,04,17,03,59,0.80
2023,04,17,04,00,0.80
2023,04,17,04,01,0.80
2023,04,17,04,02,0.80
2023,04,17,04,03,0.80
2023,04,17,04,04,0.80
2023,04,17,04,05,0.80
2023,04,17,04,06,0.80
2023,04,17,04,07,0.80
2023,04,17,04,08,0.80
2023,04,17,04,09,0.80
2023,04,17,04,10,0.80
2023,04,17,04,11,0.80
2023,04,17,04,12,0.80
2023,04,17,04,13,0.80
2023,04,17,04,14,0.80
2023,04,17,04,15,0.80
2023,04,17,04,16,0.90
2023,04,17,04,17,0.90
2023,04,17,04,18,0.90
2023,04,17,04,19,0.90
2023,04,17,04,20,0.90
2023,04,17,04,21,0.90
2023,04,17,04,22,0.90
2023,04,17,04,23,0.90
2023,04,17,04,24,0.90
2023,04,17,04,25,0.90
2023,04,17,04,26,0.90
2023,04,17,04,27,1.00
2023,04,17,04,28,1.00
2023,04,17,04,29,1.00
2023,04,17,04,30,1.00
2023,04,17,04,31,1.00
2023,04,17,04,32,1.10
2023,04,17,04,33,1.10
2023,04,17,04,34,1.10
2023,04,17,04,35,1.10
2023,04,17,04,36,1.10
2023,04,17,04,37,1.10
2023,04,17,04,38,1.10
2023,04,17,04,39,1.10
2023,04,17,04,40,1.10
2023,04,17,04,41,1.20
2023,04,17,04,42,1.20
2023,04,17,04,43,1.30
2023,04,17,04,44,1.30
2023,04,17,04,45,1.40
2023,04,17,04,46,1.40
2023,04,17,04,47,1.50
2023,04,17,04,48,1.60
2023,04,17,04,49,1.60
2023,04,17,04,50,1.70
2023,04,17,04,51,1.80
2023,04,17,04,52,1.90
2023,04,17,04,53,2.00
2023,04,17,04,54,2.10
2023,04,17,04,55,2.10
2023,04,17,04,56,2.20
2023,04,17,04,57,2.20
2023,04,17,04,58,2.30
2023,04,17,04,59,2.40
2023,04,17,05,00,2.40
2023,04,17,05,01,2.50
2023,04,17,05,02,2.50
2023,04,17,05,03,2.60
2023,04,17,05,04,2.60
2023,04,17,05,05,2.70
2023,04,17,05,06,2.70
2023,04,17,05,07,2.80
2023,04,17,05,08,2.80
2023,04,17,05,09,2.90
2023,04,17,05,10,2.90
2023,04,17,05,11,3.00
2023,04,17,05,12,3.00
2023,04,17,05,13,3.10
2023,04,17,05,14,3.10
2023,04,17,05,15,3.20
2023,04,17,05,16,3.20
2023,04,17,05,17,3.30
2023,04,17,05,18,3.30
2023,04,17,05,19,3.30
2023,04,17,05,20,3.30
2023,04,17,05,21,3.40
2023,04,17,05,22,3.40
2023,04,17,05,23,3.40
2023,04,17,05,24,3.40
2023,04,17,05,25,3.50
2023,04,17,05,26,3.50
2023,04,17,05,27,3.50
2023,04,17,05,28,3.50
2023,04,17,05,29,3.50
2023,04,17,05,30,3.60
2023,04,17,05,31,3.60
2023,04,17,05,32,3.60
2023,04,17,05,33,3.60
2023,04,17,05,34,3.60
2023,04,17,05,35,3.60
2023,04,17,05,36,3.70
2023,04,17,05,37,3.70
2023,04,17,05,38,3.70
2023,04,17,05,39,3.70
2023,04,17,05,40,3.70
2023,04,17,05,41,3.70
2023,04,17,05,42,3.70
2023,04,17,05,43,3.70
2023,04,17,05,44,3.70
2023,04,17,05,45,3.70
2023,04,17,05,46,3.70
2023,04,17,05,47,3.70
2023,04,17,05,48,3.70
2023,04,17,05,49,3.70
2023,04,17,05,50,3.70
2023,04,17,05,51,3.70
2023,04,17,05,52,3.70
2023,04,17,05,53,3.70
2023,04,17,05,54,3.70
2023,04,17,05,55,3.70
2023,04,17,05,56,3.70
2023,04,17,05,57,3.70
2023,04,17,05,58,3.70
2023,04,17,05,59,3.70
2023,04,17,06,00,3.70
2023,04,17,06,01,3.70
2023,04,17,06,02,3.70
2023,04,17,06,03,3.70
2023,04,17,06,04,3.80
2023,04,17,06,05,3.80
2023,04,17,06,06,3.80
2023,04,17,06,07,3.80
2023,04,17,06,08,3.80
2023,04,17,06,09,3.80
2023,04,17,06,10,3.80
2023,04,17,06,11,3.80
2023,04,17,06,12,3.80
2023,04,17,06,13,3.80
2023,04,17,06,14,3.80
2023,04,17,06,15,3.80
2023,04,17,06,16,3.80
2023,04,17,06,17,3.90
2023,04,17,06,18,3.90
2023,04,17,06,19,3.90
2023,04,17,06,20,3.90
2023,04,17,06,21,3.90
2023,04,17,06,22,3.90
2023,04,17,06,23,3.90
2023,04,17,06,24,3.90
2023,04,17,06,25,3.90
2023,04,17,06,26,4.00
2023,04,17,06,27,4.00
2023,04,17,06,28,4.00
2023,04,17,06,29,4.00
2023,04,17,06,30,4.10
2023,04,17,06,31,4.10
2023,04,17,06,32,4.10
2023,04,17,06,33,4.10
2023,04,17,06,34,4.10
2023,04,17,06,35,4.20
2023,04,17,06,36,4.20
2023,04,17,06,37,4.20
2023,04,17,06,38,4.20
2023,04,17,06,39,4.20
2023,04,17,06,40,4.20
2023,04,17,06,41,4.20
2023,04,17,06,42,4.20
2023,04,17,06,43,4.20
2023,04,17,06,44,4.20
2023,04,17,06,45,4.20
2023,04,17,06,46,4.30
2023,04,17,06,47,4.30
2023,04,17,06,48,4.30
2023,04,17,06,49,4.30
2023,04,17,06,50,4.30
2023,04,17,06,51,4.30
2023,04,17,06,52,4.40
2023,04,17,06,53,4.40
2023,04,17,06,54,4.40
2023,04,17,06,55,4.40
2023,04,17,06,56,4.40
2023,04,17,06,57,4.40
2023,04,17,06,58,4.40
2023,04,17,06,59,4.40
2023,04,17,07,00,4.50
2023,04,17,07,01,4.50
2023,04,17,07,02,4.50
2023,04,17,07,03,4.50
2023,04,17,07,04,4.50
2023,04,17,07,05,4.60
2023,04,17,07,06,4.60
2023,04,17,07,07,4.60
2023,04,17,07,08,4.60
2023,04,17,07,09,4.60
2023,04,17,07,10,4.70
2023,04,17,07,11,4.70
2023,04,17,07,12,4.70
2023,04,17,07,13,4.70
2023,04,17,07,14,4.70
2023,04,17,07,15,4.80
2023,04,17,07,16,4.80
2023,04,17,07,17,4.80
2023,04,17,07,18,4.80
2023,04,17,07,19,4.80
2023,04,17,07,20,4.80
2023,04,17,07,21,4.90
2023,04,17,07,22,4.90
2023,04,17,07,23,5.00
2023,04,17,07,24,5.00
2023,04,17,07,25,5.00
2023,04,17,07,26,5.10
2023,04,17,07,27,5.10
2023,04,17,07,28,5.10
2023,04,17,07,29,5.10
2023,04,17,07,30,5.10
2023,04,17,07,31,5.20
2023,04,17,07,32,5.20
2023,04,17,07,33,5.20
2023,04,17,07,34,5.20
2023,04,17,07,35,5.20
2023,04,17,07,36,5.20
2023,04,17,07,37,5.20
2023,04,17,07,38,5.30
2023,04,17,07,39,5.30
2023,04,17,07,40,5.30
2023,04,17,07,41,5.30
2023,04,17,07,42,5.30
2023,04,17,07,43,5.30
2023,04,17,07,44,5.30
2023,04,17,07,45,5.30
2023,04,17,07,46,5.30
2023,04,17,07,47,5.30
2023,04,17,07,48,5.30
2023,04,17,07,49,5.40
2023,04,17,07,50,5.40
2023,04,17,07,51,5.40
2023,04,17,07,52,5.40
2023,04,17,07,53,5.40
2023,04,17,07,54,5.40
2023,04,17,07,55,5.50
2023,04,17,07,56,5.50
2023,04,17,07,57,5.50
2023,04,17,07,58,5.50
2023,04,17,07,59,5.50
2023,04,17,08,00,5.60
2023,04,17,08,01,5.60
2023,04,17,08,02,5.60
2023,04,17,08,03,5.60
2023,04,17,08,04,5.60
2023,04,17,08,05,5.70
2023,04,17,08,06,5.70
2023,04,17,08,07,5.70
2023,04,17,08,08,5.70
2023,04,17,08,09,5.70
2023,04,17,08,10,5.70
2023,04,17,08,11,5.70
2023,04,17,08,12,5.70
2023,04,17,08,13,5.80
2023,04,17,08,14,5.80
2023,04,17,08,15,5.80
2023,04,17,08,16,5.80
2023,04,17,08,17,5.80
2023,04,17,08,18,5.80
2023,04,17,08,19,5.80
2023,04,17,08,20,5.80
2023,04,17,08,21,5.80
2023,04,17,08,22,5.90
2023,04,17,08,23,5.90
2023,04,17,08,24,5.90
2023,04,17,08,25,5.90
2023,04,17,08,26,5.90
2023,04,17,08,27,5.90
2023,04,17,08,28,6.00
2023,04,17,08,29,6.00
2023,04,17,08,30,6.00
2023,04,17,08,31,6.10
2023,04,17,08,32,6.10
2023,04,17,08,33,6.10
2023,04,17,08,34,6.10
2023,04,17,08,35,6.10
2023,04,17,08,36,6.10
2023,04,17,08,37,6.10
2023,04,17,08,38,6.20
2023,04,17,08,39,6.20
2023,04,17,08,40,6.20
2023,04,17,08,41,6.20
2023,04,17,08,42,6.20
2023,04,17,08,43,6.20
2023,04,17,08,44,6.30
2023,04,17,08,45,6.30
2023,04,17,08,46,6.30
2023,04,17,08,47,6.30
2023,04,17,08,48,6.30
2023,04,17,08,49,6.40
2023,04,17,08,50,6.40
2023,04,17,08,51,6.40
2023,04,17,08,52,6.50
2023,04,17,08,53,6.50
2023,04,17,08,54,6.60
2023,04,17,08,55,6.60
2023,04,17,08,56,6.60
2023,04,17,08,57,6.70
2023,04,17,08,58,6.70
2023,04,17,08,59,6.70
2023,04,17,09,00,6.80
2023,04,17,09,01,6.80
2023,04,17,09,02,6.80
2023,04,17,09,03,6.80
2023,04,17,09,04,6.80
2023,04,17,09,05,6.90
2023,04,17,09,06,6.90
2023,04,17,09,07,6.90
2023,04,17,09,08,6.90
2023,04,17,09,09,6.90
2023,04,17,09,10,7.00
2023,04,17,09,11,7.00
2023,04,17,09,12,7.00
2023,04,17,09,13,7.00
2023,04,17,09,14,7.00
2023,04,17,09,15,7.00
2023,04,17,09,16,7.00
2023,04,17,09,17,7.10
2023,04,17,09,18,7.10
2023,04,17,09,19,7.10
2023,04,17,09,20,7.10
2023,04,17,09,21,7.10
2023,04,17,09,22,7.20
2023,04,17,09,23,7.20
2023,04,17,09,24,7.20
2023,04,17,09,25,7.20
2023,04,17,09,26,7.20
2023,04,17,09,27,7.30
2023,04,17,09,28,7.30
2023,04,17,09,29,7.30
2023,04,17,09,30,7.30
2023,04,17,09,31,7.30
2023,04,17,09,32,7.30
2023,04,17,09,33,7.30
2023,04,17,09,34,7.30
2023,04,17,09,35,7.30
2023,04,17,09,36,7.30
2023,04,17,09,37,7.30
2023,04,17,09,38,7.30
2023,04,17,09,39,7.30
2023,04,17,09,40,7.30
2023,04,17,09,41,7.30
2023,04,17,09,42,7.30
2023,04,17,09,43,7.30
2023,04,17,09,44,7.30
2023,04,17,09,45,7.30
2023,04,17,09,46,7.30
2023,04,17,09,47,7.30
2023,04,17,09,48,7.30
2023,04,17,09,49,7.30
2023,04,17,09,50,7.40
2023,04,17,09,51,7.40
2023,04,17,09,52,7.40
2023,04,17,09,53,7.40
2023,04,17,09,54,7.40
2023,04,17,09,55,7.40
2023,04,17,09,56,7.40
2023,04,17,09,57,7.40
2023,04,17,09,58,7.40
2023,04,17,09,59,7.40
2023,04,17,10,00,7.40
2023,04,17,10,01,7.40
2023,04,17,10,02,7.40
2023,04,17,10,03,7.40
2023,04,17,10,04,7.40
2023,04,17,10,05,7.40
2023,04,17,10,06,7.50
2023,04,17,10,07,7.50
2023,04,17,10,08,7.50
2023,04,17,10,09,7.50
2023,04,17,10,10,7.50
2023,04,17,10,11,7.60
2023,04,17,10,12,7.60
2023,04,17,10,13,7.60
2023,04,17,10,14,7.60
2023,04,17,10,15,7.60
2023,04,17,10,16,7.60
2023,04,17,10,17,7.60
2023,04,17,10,18,7.60
2023,04,17,10,19,7.70
2023,04,17,10,20,7.70
2023,04,17,10,21,7.70
2023,04,17,10,22,7.70
2023,04,17,10,23,7.70
2023,04,17,10,24,7.70
2023,04,17,10,25,7.70
2023,04,17,10,26,7.70
2023,04,17,10,27,7.70
2023,04,17,10,28,7.70
2023,04,17,10,29,7.70
2023,04,17,10,30,7.70
2023,04,17,10,31,7.70
2023,04,17,10,32,7.70
2023,04,17,10,33,7.70
2023,04,17,10,34,7.70
2023,04,17,10,35,7.70
2023,04,17,10,36,7.70
2023,04,17,10,37,7.70
2023,04,17,10,38,7.70
2023,04,17,10,39,7.70
2023,04,17,10,40,7.70
2023,04,17,10,41,7.80
2023,04,17,10,42,7.80
2023,04,17,10,43,7.80
2023,04,17,10,44,7.80
2023,04,17,10,45,7.80
2023,04,17,10,46,7.80
2023,04,17,10,47,7.80
2023,04,17,10,48,7.80
2023,04,17,10,49,7.90
2023,04,17,10,50,7.90
2023,04,17,10,51,7.90
2023,04,17,10,52,7.90
2023,04,17,10,53,7.90
2023,04,17,10,54,7.90
2023,04,17,10,55,8.00
2023,04,17,10,56,8.00
2023,04,17,10,57,8.10
2023,04,17,10,58,8.10
2023,04,17,10,59,8.10
2023,04,17,11,00,8.20
2023,04,17,11,01,8.20
2023,04,17,11,02,8.20
2023,04,17,11,03,8.20
2023,04,17,11,04,8.30
2023,04,17,11,05,8.30
2023,04,17,11,06,8.30
2023,04,17,11,07,8.30
2023,04,17,11,08,8.30
2023,04,17,11,09,8.30
2023,04,17,11,10,8.40
2023,04,17,11,11,8.40
2023,04,17,11,12,8.40
2023,04,17,11,13,8.40
2023,04,17,11,14,8.40
2023,04,17,11,15,8.40
2023,04,17,11,16,8.40
2023,04,17,11,17,8.40
2023,04,17,11,18,8.40
2023,04,17,11,19,8.40
2023,04,17,11,20,8.40
2023,04,17,11,21,8.40
2023,04,17,11,22,8.40
2023,04,17,11,23,8.40
2023,04,17,11,24,8.40
2023,04,17,11,25,8.40
2023,04,17,11,26,8.40
2023,04,17,11,27,8.50
2023,04,17,11,28,8.50
2023,04,17,11,29,8.50
2023,04,17,11,30,8.50
2023,04,17,11,31,8.60
2023,04,17,11,32,8.60
2023,04,17,11,33,8.60
2023,04,17,11,34,8.60
2023,04,17,11,35,8.60
2023,04,17,11,36,8.60
2023,04,17,11,37,8.60
2023,04,17,11,38,8.70
2023,04,17,11,39,8.70
2023,04,17,11,40,8.70
2023,04,17,11,41,8.70
2023,04,17,11,42,8.70
2023,04,17,11,43,8.70
2023,04,17,11,44,8.70
2023,04,17,11,45,8.70
2023,04,17,11,46,8.70
2023,04,17,11,47,8.70
2023,04,17,11,48,8.70
2023,04,17,11,49,8.70
2023,04,17,11,50,8.80
2023,04,17,11,51,8.70
2023,04,17,11,52,8.80
2023,04,17,11,53,8.80
2023,04,17,11,54,8.70
2023,04,17,11,55,8.70
2023,04,17,11,56,8.70
2023,04,17,11,57,8.70
2023,04,17,11,58,8.70
2023,04,17,11,59,8.70
2023,04,17,12,00,8.80
2023,04,17,12,01,8.80
2023,04,17,12,02,8.70
2023,04,17,12,03,8.70
2023,04,17,12,04,8.70
2023,04,17,12,05,8.70
2023,04,17,12,06,8.70
2023,04,17,12,07,8.70
2023,04,17,12,08,8.70
2023,04,17,12,09,8.70
2023,04,17,12,10,8.70
2023,04,17,12,11,8.70
2023,04,17,12,12,8.70
2023,04,17,12,13,8.80
2023,04,17,12,14,8.80
2023,04,17,12,15,8.80
2023,04,17,12,16,8.80
2023,04,17,12,17,8.80
2023,04,17,12,18,8.80
2023,04,17,12,19,8.80
2023,04,17,12,20,8.80
2023,04,17,12,21,8.80
2023,04,17,12,22,8.80
2023,04,17,12,23,8.80
2023,04,17,12,24,8.80
2023,04,17,12,25,8.80
2023,04,17,12,26,8.80
2023,04,17,12,27,8.80
2023,04,17,12,28,8.80
2023,04,17,12,29,8.70
2023,04,17,12,30,8.70
2023,04,17,12,31,8.80
2023,04,17,12,32,8.80
2023,04,17,12,33,8.80
2023,04,17,12,34,8.80
2023,04,17,12,35,8.80
2023,04,17,12,36,8.80
2023,04,17,12,37,8.80
2023,04,17,12,38,8.70
2023,04,17,12,39,8.80
2023,04,17,12,40,8.80
2023,04,17,12,41,8.80
2023,04,17,12,42,8.80
2023,04,17,12,43,8.80
2023,04,17,12,44,8.80
2023,04,17,12,45,8.80
2023,04,17,12,46,8.80
2023,04,17,12,47,8.80
2023,04,17,12,48,8.80
2023,04,17,12,49,8.80
2023,04,17,12,50,8.80
2023,04,17,12,51,8.80
2023,04,17,12,52,8.80
2023,04,17,12,53,8.90
2023,04,17,12,54,8.90
2023,04,17,12,55,8.90
2023,04,17,12,56,8.90
2023,04,17,12,57,8.90
2023,04,17,12,58,8.90
2023,04,17,12,59,8.90
2023,04,17,13,00,8.90
2023,04,17,13,01,9.00
2023,04,17,13,02,9.00
2023,04,17,13,03,9.00
2023,04,17,13,04,9.00
2023,04,17,13,05,9.00
2023,04,17,13,06,9.00
2023,04,17,13,07,9.00
2023,04,17,13,08,9.00
2023,04,17,13,09,9.00
2023,04,17,13,10,9.00
2023,04,17,13,11,9.00
2023,04,17,13,12,9.00
2023,04,17,13,13,9.00
2023,04,17,13,14,9.00
2023,04,17,13,15,8.90
2023,04,17,13,16,8.90
2023,04,17,13,17,8.90
2023,04,17,13,18,8.90
2023,04,17,13,19,8.90
2023,04,17,13,20,8.90
2023,04,17,13,21,8.90
2023,04,17,13,22,8.90
2023,04,17,13,23,8.90
2023,04,17,13,24,8.90
2023,04,17,13,25,8.90
2023,04,17,13,26,8.90
2023,04,17,13,27,8.90
2023,04,17,13,28,8.90
2023,04,17,13,29,9.00
2023,04,17,13,30,9.00
2023,04,17,13,31,9.00
2023,04,17,13,32,9.00
2023,04,17,13,33,9.10
2023,04,17,13,34,9.10
2023,04,17,13,35,9.10
2023,04,17,13,36,9.10
2023,04,17,13,37,9.10
2023,04,17,13,38,9.00
2023,04,17,13,39,9.10
2023,04,17,13,40,9.00
2023,04,17,13,41,9.00
2023,04,17,13,42,9.00
2023,04,17,13,43,9.00
2023,04,17,13,44,9.00
2023,04,17,13,45,9.00
2023,04,17,13,46,9.10
2023,04,17,13,47,9.10
2023,04,17,13,48,9.10
2023,04,17,13,49,9.10
2023,04,17,13,50,9.10
2023,04,17,13,51,9.10
2023,04,17,13,52,9.10
2023,04,17,13,53,9.10
2023,04,17,13,54,9.10
2023,04,17,13,55,9.10
2023,04,17,13,56,9.10
2023,04,17,13,57,9.10
2023,04,17,13,58,9.10
2023,04,17,13,59,9.10
2023,04,17,14,00,9.10
2023,04,17,14,01,9.10
2023,04,17,14,02,9.10
2023,04,17,14,03,9.10
2023,04,17,14,04,9.10
2023,04,17,14,05,9.10
2023,04,17,14,06,9.10
2023,04,17,14,07,9.10
2023,04,17,14,08,9.20
2023,04,17,14,09,9.20
2023,04,17,14,10,9.20
2023,04,17,14,11,9.20
2023,04,17,14,12,9.10
2023,04,17,14,13,9.10
2023,04,17,14,14,9.10
2023,04,17,14,15,9.00
2023,04,17,14,16,9.00
2023,04,17,14,17,9.00
2023,04,17,14,18,8.90
2023,04,17,14,19,8.90
2023,04,17,14,20,8.80
2023,04,17,14,21,8.80
2023,04,17,14,22,8.80
2023,04,17,14,23,8.70
2023,04,17,14,24,8.70
2023,04,17,14,25,8.70
2023,04,17,14,26,8.70
2023,04,17,14,27,8.60
2023,04,17,14,28,8.60
2023,04,17,14,29,8.60
2023,04,17,14,30,8.50
2023,04,17,14,31,8.40
2023,04,17,14,32,8.40
2023,04,17,14,33,8.30
2023,04,17,14,34,8.30
2023,04,17,14,35,8.20
2023,04,17,14,36,8.20
2023,04,17,14,37,8.20
2023,04,17,14,38,8.20
2023,04,17,14,39,8.10
2023,04,17,14,40,8.10
2023,04,17,14,41,8.10
2023,04,17,14,42,8.10
2023,04,17,14,43,8.10
2023,04,17,14,44,8.10
2023,04,17,14,45,8.10
2023,04,17,14,46,8.00
2023,04,17,14,47,8.00
2023,04,17,14,48,7.90
2023,04,17,14,49,7.90
2023,04,17,14,50,7.90
2023,04,17,14,51,7.90
2023,04,17,14,52,7.80
2023,04,17,14,53,7.80
2023,04,17,14,54,7.80
2023,04,17,14,55,7.80
2023,04,17,14,56,7.70
2023,04,17,14,57,7.70
2023,04,17,14,58,7.70
2023,04,17,14,59,7.70
2023,04,17,15,00,7.70
2023,04,17,15,01,7.70
2023,04,17,15,02,7.70
2023,04,17,15,03,7.70
2023,04,17,15,04,7.70
2023,04,17,15,05,7.70
2023,04,17,15,06,7.70
2023,04,17,15,07,7.70
2023,04,17,15,08,7.70
2023,04,17,15,09,7.70
2023,04,17,15,10,7.70
2023,04,17,15,11,7.80
2023,04,17,15,12,7.80
2023,04,17,15,13,7.80
2023,04,17,15,14,7.70
2023,04,17,15,15,7.70
2023,04,17,15,16,7.70
2023,04,17,15,17,7.70
2023,04,17,15,18,7.70
2023,04,17,15,19,7.70
2023,04,17,15,20,7.70
2023,04,17,15,21,7.70
2023,04,17,15,22,7.70
2023,04,17,15,23,7.70
2023,04,17,15,24,7.70
2023,04,17,15,25,7.80
2023,04,17,15,26,7.80
2023,04,17,15,27,7.80
2023,04,17,15,28,7.80
2023,04,17,15,29,7.80
2023,04,17,15,30,7.70
2023,04,17,15,31,7.70
2023,04,17,15,32,7.70
2023,04,17,15,33,7.70
2023,04,17,15,34,7.70
2023,04,17,15,35,7.70
2023,04,17,15,36,7.70
2023,04,17,15,37,7.70
2023,04,17,15,38,7.80
2023,04,17,15,39,7.80
2023,04,17,15,40,7.80
2023,04,17,15,41,7.80
2023,04,17,15,42,7.80
2023,04,17,15,43,7.90
2023,04,17,15,44,7.90
2023,04,17,15,45,8.00
2023,04,17,15,46,8.00
2023,04,17,15,47,8.00
2023,04,17,15,48,8.00
2023,04,17,15,49,8.00
2023,04,17,15,50,7.90
2023,04,17,15,51,7.80
2023,04,17,15,52,7.80
2023,04,17,15,53,7.80
2023,04,17,15,54,7.90
2023,04,17,15,55,7.90
2023,04,17,15,56,7.90
2023,04,17,15,57,7.90
2023,04,17,15,58,7.90
2023,04,17,15,59,7.90
2023,04,17,16,00,7.90
2023,04,17,16,01,7.90
2023,04,17,16,02,7.90
2023,04,17,16,03,8.00
2023,04,17,16,04,8.00
2023,04,17,16,05,8.00
2023,04,17,16,06,8.00
2023,04,17,16,07,8.00
2023,04,17,16,08,8.10
2023,04,17,16,09,8.20
2023,04,17,16,10,8.20
2023,04,17,16,11,8.20
2023,04,17,16,12,8.30
2023,04,17,16,13,8.40
2023,04,17,16,14,8.40
2023,04,17,16,15,8.40
2023,04,17,16,16,8.40
2023,04,17,16,17,8.30
2023,04,17,16,18,8.30
2023,04,17,16,19,8.40
2023,04,17,16,20,8.40
2023,04,17,16,21,8.40
2023,04,17,16,22,8.50
2023,04,17,16,23,8.50
2023,04,17,16,24,8.50
2023,04,17,16,25,8.50
2023,04,17,16,26,8.60
2023,04,17,16,27,8.60
2023,04,17,16,28,8.70
2023,04,17,16,29,8.70
2023,04,17,16,30,8.80
2023,04,17,16,31,8.80
2023,04,17,16,32,8.80
2023,04,17,16,33,8.80
2023,04,17,16,34,8.70
2023,04,17,16,35,8.70
2023,04,17,16,36,8.70
2023,04,17,16,37,8.70
2023,04,17,16,38,8.70
2023,04,17,16,39,8.80
2023,04,17,16,40,8.80
2023,04,17,16,41,8.80
2023,04,17,16,42,8.80
2023,04,17,16,43,8.80
2023,04,17,16,44,8.80
2023,04,17,16,45,8.70
2023,04,17,16,46,8.70
2023,04,17,16,47,8.60
2023,04,17,16,48,8.60
2023,04,17,16,49,8.50
2023,04,17,16,50,8.40
2023,04,17,16,51,8.40
2023,04,17,16,52,8.40
2023,04,17,16,53,8.40
2023,04,17,16,54,8.40
2023,04,17,16,55,8.40
2023,04,17,16,56,8.30
2023,04,17,16,57,8.20
2023,04,17,16,58,8.20
2023,04,17,16,59,8.20
2023,04,17,17,00,8.20
2023,04,17,17,01,8.20
2023,04,17,17,02,8.20
2023,04,17,17,03,8.20
2023,04,17,17,04,8.20
2023,04,17,17,05,8.30
2023,04,17,17,06,8.30
2023,04,17,17,07,8.40
2023,04,17,17,08,8.40
2023,04,17,17,09,8.40
2023,04,17,17,10,8.50
2023,04,17,17,11,8.60
2023,04,17,17,12,8.70
2023,04,17,17,13,8.80
2023,04,17,17,14,8.90
2023,04,17,17,15,8.90
2023,04,17,17,16,8.90
2023,04,17,17,17,8.90
2023,04,17,17,18,8.80
2023,04,17,17,19,8.80
2023,04,17,17,20,8.70
2023,04,17,17,21,8.70
2023,04,17,17,22,8.60
2023,04,17,17,23,8.50
2023,04,17,17,24,8.40
2023,04,17,17,25,8.40
2023,04,17,17,26,8.40
2023,04,17,17,27,8.40
2023,04,17,17,28,8.40
2023,04,17,17,29,8.40
2023,04,17,17,30,8.40
2023,04,17,17,31,8.30
2023,04,17,17,32,8.40
2023,04,17,17,33,8.30
2023,04,17,17,34,8.40
2023,04,17,17,35,8.40
2023,04,17,17,36,8.40
2023,04,17,17,37,8.40
2023,04,17,17,38,8.30
2023,04,17,17,39,8.20
2023,04,17,17,40,8.10
2023,04,17,17,41,8.10
2023,04,17,17,42,8.10
2023,04,17,17,43,8.10
2023,04,17,17,44,8.10
2023,04,17,17,45,8.20
2023,04,17,17,46,8.20
2023,04,17,17,47,8.20
2023,04,17,17,48,8.10
2023,04,17,17,49,8.10
2023,04,17,17,50,8.10
2023,04,17,17,51,8.20
2023,04,17,17,52,8.20
2023,04,17,17,53,8.20
2023,04,17,17,54,8.20
2023,04,17,17,55,8.20
2023,04,17,17,56,8.20
2023,04,17,17,57,8.20
2023,04,17,17,58,8.20
2023,04,17,17,59,8.20
2023,04,17,18,00,8.10
2023,04,17,18,01,8.10
2023,04,17,18,02,8.10
2023,04,17,18,03,8.10
2023,04,17,18,04,8.10
2023,04,17,18,05,8.10
2023,04,17,18,06,8.10